Weather History for Le Lamentin, Martinique

Change the Weather History Date:

Wednesday, August 22, 2012

  Actual Average Record
Temperature  
Mean Temperature 78 °F -  
Max Temperature 80 °F 87 °F 93 °F (2011)
Min Temperature 75 °F 74 °F 71 °F (2003)
Cooling Degree Days 12    
Growing Degree Days 28 (Base 50)    
Moisture  
Dew Point 75 °F    
Average Humidity 92    
Maximum Humidity 94    
Minimum Humidity 83    
Precipitation  
Precipitation 1.46 in 0.32 in - ()
Sea Level Pressure  
Sea Level Pressure 29.81 in    
Wind  
Wind Speed 7 mph ()    
Max Wind Speed 28 mph    
Max Gust Speed 30 mph    
Visibility 5.7 miles    
Events Rain , Thunderstorm    
Averages and records for this station are not official NWS values.
T = Trace of Precipitation, MM = Missing Value Source: Averaged Metar Reports

Daily Weather History Graph

Daily Weather History Graph

Search for Another Location

Airport:

Trip Planner

Search our weather history database for the weather conditions in past years. The results will help you decide how hot, cold, wet, or windy it might be!

Date:

Astronomy

Aug. 22, 2012 Rise Set
Actual Time 5:51 AM AST 6:22 PM AST
Civil Twilight 5:29 AM AST 6:44 PM AST
Nautical Twilight 5:03 AM AST 7:09 PM AST
Astronomical Twilight 4:37 AM AST 7:35 PM AST
Moon 10:18 AM AST (8/22) 10:09 PM AST (8/22)
Length of Visible Light 13h 14m
Length of Day
12h 31m
Waxing Crescent, 29% of the Moon is Illuminated
Aug 22
Waxing Crescent
Aug 24
First Quarter
Aug 31
Full
Sep 8
Last Quarter
Sep 15
New

Hourly Weather History & Observations

Time (AST) Temp. Heat Index Dew Point Humidity Pressure Visibility Wind Dir Wind Speed Gust Speed Precip Events Conditions
12:00 AM 80.6 °F 86.2 °F 75.2 °F 84% 29.92 in 6.2 mi NNE 3.5 mph - N/A   Unknown
12:30 AM 77.0 °F - 73.4 °F 89% 29.92 in 1.5 mi NE 15.0 mph - N/A Rain Heavy Rain
1:00 AM 77.0 °F - 73.4 °F 89% 29.92 in 5.0 mi Variable 2.3 mph - N/A Rain Light Rain
1:30 AM 75.2 °F - 73.4 °F 94% 29.89 in 6.2 mi Variable 2.3 mph - N/A Rain Light Rain
2:00 AM 76 °F - 73 °F 88% 29.89 in 25 mi ENE 1.2 mph - - Rain Light Rain
2:00 AM 75.2 °F - 73.4 °F 94% 29.89 in 6.2 mi Calm Calm - N/A Rain Light Rain
2:30 AM 75.2 °F - 73.4 °F 94% 29.86 in 6.2 mi Calm Calm - N/A Rain Light Rain
3:00 AM 75.2 °F - 73.4 °F 94% 29.83 in 6.2 mi Calm Calm - N/A Rain Light Rain
3:30 AM 75.2 °F - 73.4 °F 94% 29.86 in 6.2 mi Variable 2.3 mph - N/A Rain Light Rain
4:00 AM 75.2 °F - 73.4 °F 94% 29.83 in 6.2 mi Calm Calm - N/A   Overcast
4:30 AM 75.2 °F - 73.4 °F 94% 29.83 in 6.2 mi Variable 1.2 mph - N/A Rain Light Rain
5:00 AM 75.2 °F - 73.4 °F 94% 29.83 in 6.2 mi Variable 2.3 mph - N/A   Mostly Cloudy
5:30 AM 75.2 °F - 73.4 °F 94% 29.83 in 6.2 mi Variable 2.3 mph - N/A   Overcast
6:00 AM 75.2 °F - 73.4 °F 94% 29.83 in 6.2 mi Variable 1.2 mph - N/A   Overcast
6:30 AM 75.2 °F - 73.4 °F 94% 29.83 in 6.2 mi Calm Calm - N/A   Mostly Cloudy
7:00 AM 77.0 °F - 75.2 °F 94% 29.83 in 6.2 mi Calm Calm - N/A   Overcast
7:30 AM 77.0 °F - 75.2 °F 94% 29.86 in 6.2 mi WNW 5.8 mph - N/A Rain Light Rain
8:00 AM 76 °F - 75 °F 94% 29.86 in 2 mi SE 3.5 mph - - Rain , Thunderstorm Thunderstorms and Rain
8:00 AM 77.0 °F - 75.2 °F 94% 29.83 in 2.5 mi Variable 3.5 mph - N/A Rain , Thunderstorm Light Thunderstorms and Rain
8:30 AM 77.0 °F - 75.2 °F 94% 29.83 in 6.2 mi Calm Calm - N/A   Overcast
9:00 AM 77.0 °F - 75.2 °F 94% 29.83 in 6.2 mi Variable 1.2 mph - N/A   Overcast
9:30 AM 78.8 °F - 77.0 °F 94% 29.83 in 6.2 mi West 9.2 mph - N/A   Overcast
10:00 AM 78.8 °F - 75.2 °F 89% 29.83 in 6.2 mi West 6.9 mph - N/A Rain Light Rain Showers
10:07 AM 78.8 °F - 77.0 °F 94% 29.83 in 6.2 mi West 6.9 mph - N/A   Scattered Clouds
10:30 AM 80.6 °F 87.1 °F 77.0 °F 89% 29.83 in 6.2 mi WSW 9.2 mph - N/A   Mostly Cloudy
11:00 AM 78.8 °F - 75.2 °F 89% 29.83 in 6.2 mi Variable 3.5 mph - N/A Rain Light Rain
11:30 AM 77.0 °F - 73.4 °F 89% 29.83 in 3.1 mi South 4.6 mph - N/A Rain , Thunderstorm Light Thunderstorms and Rain
12:00 PM 75.2 °F - 73.4 °F 94% 29.77 in 3.1 mi WSW 27.6 mph - N/A Rain , Thunderstorm Light Thunderstorms and Rain
12:30 PM 77.0 °F - 75.2 °F 94% 29.77 in 6.2 mi SW 19.6 mph - N/A Rain Light Rain
1:00 PM 78.8 °F - 75.2 °F 89% 29.80 in 6.2 mi WSW 15.0 mph - N/A Rain Light Rain
1:30 PM 78.8 °F - 77.0 °F 94% 29.77 in 6.2 mi West 17.3 mph - N/A Rain Light Rain
2:00 PM 78 °F - 75 °F 88% 29.80 in 6 mi West 10.4 mph - - Rain Light Rain
2:00 PM 77.0 °F - 75.2 °F 94% 29.80 in 6.2 mi West 10.4 mph - N/A Rain Light Rain
2:30 PM 77.0 °F - 75.2 °F 94% 29.80 in 6.2 mi West 10.4 mph - N/A Rain Rain
3:00 PM 77.0 °F - 75.2 °F 94% 29.77 in 1.2 mi WSW 18.4 mph - N/A Rain Rain
3:30 PM 77.0 °F - 75.2 °F 94% 29.77 in 6.2 mi West 12.7 mph 26.5 mph N/A Rain Light Rain
4:00 PM 77.0 °F - 75.2 °F 94% 29.74 in 6.2 mi WSW 24.2 mph - N/A Rain Light Rain
4:30 PM 77.0 °F - 75.2 °F 94% 29.74 in 6.2 mi WSW 19.6 mph - N/A   Overcast
5:00 PM 78.8 °F - 75.2 °F 89% 29.74 in 6.2 mi West 19.6 mph - N/A   Mostly Cloudy
5:30 PM 78.8 °F - 75.2 °F 89% 29.71 in 4.3 mi WSW 21.9 mph - N/A Rain Light Rain
6:00 PM 78.8 °F - 75.2 °F 89% 29.71 in 6.2 mi WSW 24.2 mph - N/A   Mostly Cloudy
7:30 PM 78.8 °F - 75.2 °F 89% 29.74 in 6.2 mi WSW 18.4 mph - N/A   Mostly Cloudy
8:00 PM 79 °F - 75 °F 83% 29.78 in 11 mi WSW 16.1 mph - -   Partly Cloudy
8:00 PM 78.8 °F - 75.2 °F 89% 29.77 in 6.2 mi WSW 16.1 mph - N/A   Mostly Cloudy
8:30 PM 80.6 °F 86.2 °F 75.2 °F 84% 29.77 in 6.2 mi WSW 17.3 mph - N/A   Mostly Cloudy
9:00 PM 78.8 °F - 75.2 °F 89% 29.77 in 6.2 mi SW 15.0 mph 29.9 mph N/A   Mostly Cloudy
9:30 PM 78.8 °F - 75.2 °F 89% 29.77 in 6.2 mi WSW 19.6 mph - N/A   Mostly Cloudy
10:00 PM 77.0 °F - 75.2 °F 94% 29.80 in 5.6 mi SW 16.1 mph - N/A Rain Rain
10:30 PM 77.0 °F - 73.4 °F 89% 29.80 in 6.2 mi SW 11.5 mph - N/A Rain Light Rain
11:00 PM 77.0 °F - 75.2 °F 94% 29.80 in 6.2 mi SSW 5.8 mph - N/A Rain Light Rain
11:30 PM 77.0 °F - 73.4 °F 89% 29.80 in 6.2 mi SSE 4.6 mph - N/A   Overcast